TimeEDT,TemperatureF,Dew PointF,Humidity,Sea Level PressureIn,VisibilityMPH,Wind Direction,Wind SpeedMPH,Gust SpeedMPH,PrecipitationIn,Events,Conditions,WindDirDegrees,DateUTC
12:54 AM,64.0,57.0,78,30.19,10.0,NNW,3.5,-,N/A,,Partly Cloudy,330,2013-07-30 04:54:00
1:54 AM,62.1,57.9,86,30.19,10.0,NW,4.6,-,N/A,,Scattered Clouds,310,2013-07-30 05:54:00
2:54 AM,62.1,57.0,84,30.18,10.0,NW,4.6,-,N/A,,Clear,320,2013-07-30 06:54:00
3:54 AM,61.0,57.9,90,30.18,10.0,Calm,Calm,-,N/A,,Mostly Cloudy,0,2013-07-30 07:54:00
4:54 AM,60.1,57.0,90,30.19,10.0,Calm,Calm,-,N/A,,Clear,0,2013-07-30 08:54:00
5:54 AM,59.0,57.0,93,30.21,10.0,Calm,Calm,-,N/A,,Clear,0,2013-07-30 09:54:00
6:46 AM,59.0,57.2,94,30.28,10.0,Calm,Calm,-,N/A,,Mostly Cloudy,0,2013-07-30 10:46:00
6:54 AM,59.0,57.0,93,30.22,10.0,Calm,Calm,-,N/A,,Mostly Cloudy,0,2013-07-30 10:54:00
7:01 AM,59.0,57.2,94,30.28,10.0,Calm,Calm,-,N/A,,Scattered Clouds,0,2013-07-30 11:01:00
7:54 AM,61.0,57.9,90,30.24,10.0,Calm,Calm,-,N/A,,Clear,0,2013-07-30 11:54:00
8:54 AM,64.0,59.0,84,30.25,10.0,Calm,Calm,-,N/A,,Clear,0,2013-07-30 12:54:00
9:54 AM,68.0,60.1,76,30.24,10.0,Calm,Calm,-,N/A,,Clear,0,2013-07-30 13:54:00
10:54 AM,72.0,61.0,68,30.22,10.0,SSE,4.6,-,N/A,,Clear,160,2013-07-30 14:54:00
11:54 AM,75.0,64.0,69,30.21,10.0,Variable,4.6,-,N/A,,Scattered Clouds,0,2013-07-30 15:54:00
12:31 PM,75.2,64.4,69,30.27,10.0,South,6.9,-,N/A,,Mostly Cloudy,170,2013-07-30 16:31:00
12:54 PM,77.0,64.0,64,30.21,10.0,Variable,3.5,-,N/A,,Scattered Clouds,0,2013-07-30 16:54:00
1:54 PM,78.1,63.0,60,30.19,10.0,Calm,Calm,-,N/A,,Clear,0,2013-07-30 17:54:00
2:54 PM,78.1,64.0,62,30.18,10.0,Variable,4.6,-,N/A,,Scattered Clouds,0,2013-07-30 18:54:00
3:54 PM,79.0,64.9,62,30.17,10.0,South,6.9,-,N/A,,Mostly Cloudy,170,2013-07-30 19:54:00
4:54 PM,78.1,66.9,68,30.17,10.0,SSE,8.1,-,N/A,,Mostly Cloudy,160,2013-07-30 20:54:00
5:54 PM,77.0,66.9,71,30.17,10.0,SSE,3.5,-,N/A,,Scattered Clouds,160,2013-07-30 21:54:00
6:54 PM,75.9,66.9,74,30.16,10.0,SSE,6.9,-,N/A,,Scattered Clouds,160,2013-07-30 22:54:00
7:07 PM,75.2,66.2,73,30.23,10.0,SE,4.6,-,N/A,,Mostly Cloudy,140,2013-07-30 23:07:00
7:54 PM,75.0,66.9,76,30.17,10.0,Calm,Calm,-,N/A,,Overcast,0,2013-07-30 23:54:00
8:23 PM,73.4,66.2,78,30.23,10.0,Calm,Calm,-,N/A,,Scattered Clouds,0,2013-07-31 00:23:00
8:46 PM,73.4,66.2,78,30.24,9.0,SSE,4.6,-,N/A,,Mostly Cloudy,150,2013-07-31 00:46:00
8:54 PM,73.0,66.9,81,30.17,8.0,Calm,Calm,-,N/A,,Mostly Cloudy,0,2013-07-31 00:54:00
9:03 PM,73.4,66.2,78,30.24,10.0,SE,3.5,-,N/A,,Mostly Cloudy,140,2013-07-31 01:03:00
9:10 PM,73.4,66.2,78,30.24,10.0,South,3.5,-,N/A,,Mostly Cloudy,190,2013-07-31 01:10:00
9:18 PM,73.4,66.2,78,30.23,10.0,SSE,3.5,-,N/A,,Mostly Cloudy,150,2013-07-31 01:18:00
9:54 PM,72.0,66.9,84,30.19,10.0,South,3.5,-,N/A,,Partly Cloudy,190,2013-07-31 01:54:00
10:54 PM,72.0,68.0,87,30.18,10.0,Calm,Calm,-,N/A,,Partly Cloudy,0,2013-07-31 02:54:00
11:54 PM,71.1,68.0,90,30.18,10.0,Calm,Calm,-,N/A,,Scattered Clouds,0,2013-07-31 03:54:00